Overview Statistics Trail Chart Weather Telemetry Raw packets
 

This is the latest recevied weather packets stored in our database for station/object M0JUI-1. If no packets are shown the sender has not sent any weather packets the latest 10 day(s).

<< 63 64 65 66 67 68 69 >>
Time Temp. Humidity Pressure Rain* Wind** Luminosity Snow
1788196017 15.56° C 1% 1016 hPa 0 mm - 47 W/m² -
1788195717 16.11° C 1% 1015.8 hPa 0 mm - 49 W/m² -
1788195417 16.11° C 1% 1015.9 hPa 0 mm - 56 W/m² -
1788195117 16.11° C 1% 1015.7 hPa 0 mm - 62 W/m² -
1788194817 16.11° C 1% 1015.7 hPa 0 mm - 61 W/m² -
1788194517 16.67° C 1% 1015.7 hPa 0 mm - 81 W/m² -
1788194217 16.67° C 1% 1015.6 hPa 0 mm - 138 W/m² -
1788193917 16.67° C 1% 1015.6 hPa 0 mm - 126 W/m² -
1788193618 16.67° C 1% 1015.7 hPa 0 mm - 127 W/m² -
1788193317 16.67° C 1% 1015.5 hPa 0 mm - 159 W/m² -
1788193018 16.67° C 1% 1015.5 hPa 0 mm - 186 W/m² -
1788192718 16.67° C 1% 1015.4 hPa 0 mm - 174 W/m² -
1788192417 16.67° C 1% 1015.4 hPa 0 mm - 166 W/m² -
1788192117 16.67° C 1% 1015.4 hPa 0 mm - 173 W/m² -
1788191817 16.11° C 1% 1015.3 hPa 0 mm - 127 W/m² -
1788191517 16.11° C 1% 1015.3 hPa 0 mm - 79 W/m² -
1788191217 16.67° C 1% 1015.4 hPa 0 mm - 93 W/m² -
1788190918 16.67° C 1% 1015.2 hPa 0 mm - 135 W/m² -
1788190617 16.67° C 1% 1015.1 hPa 0 mm - 173 W/m² -
1788190317 16.67° C 1% 1015.1 hPa 0 mm - 187 W/m² -
1788190005 16.67° C 1% 1014.8 hPa 0 mm - 129 W/m² -
1788189705 16.67° C 1% 1014.9 hPa 0 mm - 156 W/m² -
1788189405 17.22° C 1% 1014.9 hPa 0 mm - 170 W/m² -
1788189105 17.78° C 1% 1015 hPa 0 mm - 97 W/m² -
1788188805 17.22° C 1% 1014.8 hPa 0 mm - 370 W/m² -

* Rain latest hour (hover to see other rain measurements)
** Current wind speed in m/s (hover to see current wind gust speed)